This is the latest recevied weather packets stored in our database for station/object K5OBH. If no packets are shown the sender has not sent any weather packets the latest 10 day(s).
| Time | Temp. | Humidity | Pressure | Rain* | Wind** | Luminosity | Snow |
|---|---|---|---|---|---|---|---|
| 1777505542 | 18.89° C | 53% | 1015.1 hPa | 0 mm | - | 142 W/m² | - |
| 1777505238 | 18.89° C | 53% | 1015.2 hPa | 0 mm | - | 154 W/m² | - |
| 1777504935 | 18.89° C | 53% | 1015.3 hPa | 0 mm | - | 167 W/m² | - |
| 1777504632 | 19.44° C | 53% | 1015.1 hPa | 0 mm | - | 178 W/m² | - |
| 1777504329 | 19.44° C | 53% | 1015.2 hPa | 0 mm | - | 192 W/m² | - |
| 1777504023 | 18.89° C | 53% | 1015 hPa | 0 mm | - | 204 W/m² | - |
| 1777503720 | 19.44° C | 53% | 1015 hPa | 0 mm | - | 219 W/m² | - |
| 1777503417 | 18.89° C | 53% | 1015 hPa | 0 mm | - | 224 W/m² | - |
| 1777503113 | 19.44° C | 52% | 1014.8 hPa | 0 mm | - | 246 W/m² | - |
| 1777502811 | 18.89° C | 53% | 1014.9 hPa | 0 mm | - | 261 W/m² | - |
| 1777502507 | 19.44° C | 52% | 1014.8 hPa | 0 mm | - | 275 W/m² | - |
| 1777502205 | 19.44° C | 52% | 1015 hPa | 0 mm | - | 291 W/m² | - |
| 1777501902 | 19.44° C | 52% | 1015 hPa | 0 mm | - | 302 W/m² | - |
| 1777501598 | 18.89° C | 53% | 1015 hPa | 0 mm | - | 322 W/m² | - |
| 1777501296 | 19.44° C | 52% | 1014.8 hPa | 0 mm | - | 340 W/m² | - |
| 1777500994 | 19.44° C | 52% | 1014.8 hPa | 0 mm | - | 348 W/m² | - |
| 1777500691 | 19.44° C | 50% | 1014.8 hPa | 0 mm | - | 371 W/m² | - |
| 1777500387 | 19.44° C | 52% | 1014.9 hPa | 0 mm | - | 381 W/m² | - |
| 1777500083 | 19.44° C | 51% | 1015.1 hPa | 0 mm | - | 397 W/m² | - |
| 1777499781 | 19.44° C | 51% | 1015 hPa | 0 mm | - | 408 W/m² | - |
| 1777499477 | 19.44° C | 53% | 1015.3 hPa | 0 mm | - | 428 W/m² | - |
| 1777499175 | 19.44° C | 52% | 1015.3 hPa | 0 mm | - | 410 W/m² | - |
| 1777498872 | 19.44° C | 52% | 1015.1 hPa | 0 mm | - | 453 W/m² | - |
| 1777498568 | 20° C | 50% | 1015.2 hPa | 0 mm | - | 465 W/m² | - |
| 1777498264 | 19.44° C | 54% | 1015.4 hPa | 0 mm | - | 512 W/m² | - |
* Rain latest hour (hover to see other rain measurements)
** Current wind speed in m/s (hover to see current wind gust speed)